• In Spain
  • List of Countries
  • For 7 days
  • Water Temperature
  • Satellite Maps
  • Weather Map
  • Weather Widgets
  • user-avatar
    Login

    Hourly Weather Pradocin

    Today, 20 September, Thursday

    Time Temperature Precipitation Wind Pressure Humidity
    00:00 +20°C° 0 mm 2 mps 757 mmHg 63%
    01:00 +20°C° 0 mm 2 mps 757 mmHg 67%
    02:00 +20°C° 0 mm 2 mps 757 mmHg 68%
    03:00 +20°C° 0 mm 2 mps 757 mmHg 69%
    04:00 +19°C° 0 mm 3 mps 757 mmHg 70%
    05:00 +20°C° 0 mm 3 mps 757 mmHg 70%
    06:00 +20°C° 0 mm 3 mps 757 mmHg 69%
    07:00 +20°C° 0 mm 3 mps 757 mmHg 69%
    08:00 +22°C° 0 mm 3 mps 757 mmHg 63%
    09:00 +25°C° 0 mm 3 mps 757 mmHg 57%
    10:00 +27°C° 0 mm 3 mps 757 mmHg 51%
    11:00 +28°C° 0 mm 3 mps 757 mmHg 48%
    12:00 +29°C° 0 mm 4 mps 757 mmHg 46%
    13:00 +30°C° 0 mm 4 mps 757 mmHg 43%
    14:00 +30°C° 0 mm 4 mps 756 mmHg 44%
    15:00 +30°C° 0 mm 4 mps 756 mmHg 45%
    16:00 +29°C° 0 mm 4 mps 756 mmHg 46%
    17:00 +28°C° 0 mm 3 mps 756 mmHg 51%
    18:00 +26°C° 0 mm 2 mps 756 mmHg 57%
    19:00 +24°C° 0 mm 2 mps 756 mmHg 62%
    20:00 +24°C° 0 mm 2 mps 756 mmHg 63%
    21:00 +23°C° 0 mm 2 mps 755 mmHg 64%
    22:00 +23°C° 0 mm 2 mps 755 mmHg 65%
    23:00 +21°C° 0.1 mm 3 mps 755 mmHg 66%

    Tomorrow, 21 September, Friday

    Time Temperature Precipitation Wind Pressure Humidity
    00:00 +21°C° 0.1 mm 3 mps 755 mmHg 66%
    01:00 +21°C° 0.1 mm 3 mps 755 mmHg 67%
    02:00 +20°C° 0 mm 3 mps 754 mmHg 67%
    03:00 +20°C° 0 mm 3 mps 754 mmHg 67%
    04:00 +20°C° 0 mm 3 mps 754 mmHg 67%
    05:00 +20°C° 0 mm 4 mps 754 mmHg 66%
    06:00 +20°C° 0 mm 4 mps 753 mmHg 65%
    07:00 +21°C° 0 mm 4 mps 753 mmHg 64%
    08:00 +23°C° 0 mm 5 mps 753 mmHg 59%
    09:00 +26°C° 0 mm 6 mps 752 mmHg 53%
    10:00 +27°C° 0 mm 6 mps 752 mmHg 48%
    11:00 +28°C° 0 mm 7 mps 751 mmHg 45%
    12:00 +29°C° 0 mm 7 mps 751 mmHg 42%
    13:00 +30°C° 0 mm 7 mps 750 mmHg 40%
    14:00 +30°C° 0 mm 7 mps 749 mmHg 40%
    15:00 +29°C° 0 mm 7 mps 748 mmHg 40%
    16:00 +29°C° 0 mm 7 mps 747 mmHg 40%
    17:00 +28°C° 0 mm 7 mps 748 mmHg 43%
    18:00 +27°C° 0 mm 7 mps 748 mmHg 46%
    19:00 +26°C° 0 mm 7 mps 748 mmHg 49%
    20:00 +22°C° 0.5 mm 7 mps 749 mmHg 58%
    21:00 +18°C° 0.5 mm 7 mps 750 mmHg 68%
    22:00 +15°C° 0.5 mm 7 mps 750 mmHg 77%
    23:00 +15°C° 0.2 mm 6 mps 751 mmHg 75%

    Day after tomorrow, 22 September, Saturday

    Time Temperature Precipitation Wind Pressure Humidity
    00:00 +14°C° 0.2 mm 6 mps 752 mmHg 72%
    01:00 +13°C° 0.2 mm 5 mps 753 mmHg 70%
    02:00 +13°C° 0 mm 5 mps 753 mmHg 68%
    03:00 +12°C° 0 mm 5 mps 754 mmHg 67%
    04:00 +12°C° 0 mm 4 mps 754 mmHg 66%
    05:00 +12°C° 0 mm 5 mps 754 mmHg 64%
    06:00 +11°C° 0 mm 6 mps 755 mmHg 63%
    07:00 +11°C° 0 mm 7 mps 755 mmHg 61%
    08:00 +12°C° 0 mm 7 mps 755 mmHg 59%
    09:00 +14°C° 0 mm 7 mps 755 mmHg 56%
    10:00 +15°C° 0 mm 7 mps 756 mmHg 53%
    11:00 +16°C° 0 mm 7 mps 756 mmHg 50%
    12:00 +16°C° 0 mm 7 mps 756 mmHg 47%
    13:00 +17°C° 0 mm 6 mps 756 mmHg 44%
    14:00 +17°C° 0 mm 6 mps 756 mmHg 44%
    15:00 +17°C° 0 mm 6 mps 756 mmHg 45%
    16:00 +16°C° 0 mm 6 mps 756 mmHg 45%
    17:00 +15°C° 0 mm 5 mps 756 mmHg 50%
    18:00 +14°C° 0 mm 4 mps 756 mmHg 55%
    19:00 +13°C° 0 mm 4 mps 756 mmHg 60%
    20:00 +13°C° 0 mm 4 mps 756 mmHg 61%
    21:00 +12°C° 0 mm 4 mps 756 mmHg 63%
    22:00 +12°C° 0 mm 4 mps 756 mmHg 64%
    23:00 +11°C° 0 mm 4 mps 756 mmHg 64%

    23 September, Sunday

    Time Temperature Precipitation Wind Pressure Humidity
    00:00 +11°C° 0 mm 4 mps 756 mmHg 64%
    01:00 +11°C° 0 mm 4 mps 756 mmHg 64%
    02:00 +11°C° 0 mm 4 mps 756 mmHg 65%
    03:00 +10°C° 0 mm 4 mps 756 mmHg 67%
    04:00 +10°C° 0 mm 4 mps 756 mmHg 68%
    05:00 +10°C° 0 mm 4 mps 756 mmHg 67%
    06:00 +11°C° 0 mm 4 mps 756 mmHg 66%
    07:00 +10°C° 0 mm 5 mps 756 mmHg 65%
    08:00 +12°C° 0 mm 5 mps 755 mmHg 62%
    09:00 +13°C° 0 mm 5 mps 755 mmHg 58%
    10:00 +14°C° 0 mm 5 mps 755 mmHg 55%
    11:00 +14°C° 0.1 mm 5 mps 754 mmHg 56%
    12:00 +14°C° 0.1 mm 5 mps 753 mmHg 58%
    13:00 +14°C° 0.1 mm 4 mps 752 mmHg 59%
    14:00 +14°C° 1 mm 4 mps 751 mmHg 66%
    15:00 +13°C° 1 mm 3 mps 750 mmHg 74%
    16:00 +12°C° 1 mm 3 mps 749 mmHg 81%
    17:00 +12°C° 1.7 mm 3 mps 748 mmHg 83%
    18:00 +11°C° 1.7 mm 4 mps 747 mmHg 86%
    19:00 +10°C° 1.7 mm 5 mps 745 mmHg 89%
    20:00 +12°C° 2.5 mm 5 mps 743 mmHg 90%
    21:00 +13°C° 2.5 mm 6 mps 741 mmHg 91%
    22:00 +14°C° 2.5 mm 7 mps 739 mmHg 91%
    23:00 +15°C° 1.8 mm 8 mps 738 mmHg 89%

    24 September, Monday

    Time Temperature Precipitation Wind Pressure Humidity
    00:00 +15°C° 1.8 mm 8 mps 737 mmHg 86%
    01:00 +15°C° 1.8 mm 8 mps 736 mmHg 84%
    02:00 +13°C° 0.7 mm 9 mps 737 mmHg 84%
    03:00 +11°C° 0.7 mm 11 mps 738 mmHg 84%
    04:00 +9°C° 0.7 mm 12 mps 739 mmHg 84%
    05:00 +8°C° 0.6 mm 11 mps 742 mmHg 82%
    06:00 +8°C° 0.6 mm 11 mps 744 mmHg 80%
    07:00 +8°C° 0.6 mm 10 mps 746 mmHg 77%
    08:00 +9°C° 0.2 mm 10 mps 748 mmHg 74%
    09:00 +9°C° 0.2 mm 10 mps 749 mmHg 71%
    10:00 +11°C° 0.2 mm 10 mps 750 mmHg 67%
    11:00 +11°C° 0.4 mm 9 mps 751 mmHg 67%
    12:00 +11°C° 0.4 mm 9 mps 753 mmHg 67%
    13:00 +11°C° 0.4 mm 8 mps 754 mmHg 67%
    14:00 +11°C° 0.1 mm 8 mps 755 mmHg 63%
    15:00 +11°C° 0.1 mm 7 mps 756 mmHg 59%
    16:00 +11°C° 0.1 mm 7 mps 757 mmHg 54%
    17:00 +10°C° 0 mm 6 mps 757 mmHg 57%
    18:00 +9°C° 0 mm 5 mps 758 mmHg 60%
    19:00 +8°C° 0 mm 4 mps 759 mmHg 63%
    20:00 +8°C° 0 mm 4 mps 759 mmHg 64%
    21:00 +8°C° 0 mm 5 mps 760 mmHg 64%
    22:00 +8°C° 0 mm 5 mps 760 mmHg 65%
    23:00 +8°C° 0 mm 5 mps 760 mmHg 67%

    25 September, Tuesday

    Time Temperature Precipitation Wind Pressure Humidity
    00:00 +7°C° 0 mm 5 mps 760 mmHg 70%
    01:00 +7°C° 0 mm 5 mps 761 mmHg 72%
    02:00 +7°C° 0 mm 6 mps 761 mmHg 72%
    03:00 +7°C° 0 mm 6 mps 761 mmHg 73%
    04:00 +7°C° 0 mm 6 mps 761 mmHg 73%
    05:00 +7°C° 0 mm 6 mps 761 mmHg 74%
    06:00 +7°C° 0 mm 6 mps 761 mmHg 75%
    07:00 +7°C° 0 mm 6 mps 761 mmHg 76%
    08:00 +8°C° 0 mm 6 mps 761 mmHg 72%
    09:00 +10°C° 0 mm 6 mps 761 mmHg 68%
    10:00 +11°C° 0 mm 7 mps 761 mmHg 64%
    11:00 +10°C° 0.5 mm 7 mps 761 mmHg 67%
    12:00 +10°C° 0.5 mm 7 mps 760 mmHg 70%
    13:00 +10°C° 0.5 mm 8 mps 760 mmHg 73%
    14:00 +10°C° 0.4 mm 7 mps 760 mmHg 72%
    15:00 +10°C° 0.4 mm 6 mps 760 mmHg 71%
    16:00 +10°C° 0.4 mm 6 mps 760 mmHg 70%
    17:00 +10°C° 0 mm 5 mps 760 mmHg 73%
    18:00 +9°C° 0 mm 5 mps 761 mmHg 76%
    19:00 +8°C° 0 mm 4 mps 761 mmHg 80%
    20:00 +8°C° 0 mm 4 mps 762 mmHg 82%
    21:00 +7°C° 0 mm 4 mps 762 mmHg 84%
    22:00 +7°C° 0 mm 4 mps 763 mmHg 86%
    23:00 +7°C° 0 mm 4 mps 763 mmHg 88%
    Show more